TNU22 WADD-WARR

Flight info

Callsign TNU22
Flight time 0h 42m
Altitude 22000
Route OKANG
Aircraft A321/M-SDE3FGHIRWY/LB1

Departure

Time 2026-05-09 11:22
Airport Denpasar I Gusti Ngurah Rai International Airport (WADD)

Arrival

Time 2026-05-09 12:04
Airport Juanda International Airport (WARR)
Time Latitude Longitude Altitude Speed Heading
2026-05-09 11:15 -8.74707 115.16447 22 ft 0 kts 266°
2026-05-09 11:17 -8.74707 115.16435 22 ft 3 kts 268°
2026-05-09 11:17 -8.74708 115.16404 22 ft 5 kts 268°
2026-05-09 11:18 -8.74709 115.16378 22 ft 7 kts 267°
2026-05-09 11:18 -8.74712 115.16318 22 ft 9 kts 267°
2026-05-09 11:18 -8.74716 115.16244 22 ft 11 kts 267°
2026-05-09 11:18 -8.74720 115.16155 22 ft 13 kts 267°
2026-05-09 11:19 -8.74725 115.16054 22 ft 15 kts 267°
2026-05-09 11:19 -8.74729 115.15939 22 ft 17 kts 268°
2026-05-09 11:19 -8.74736 115.15807 22 ft 20 kts 267°
2026-05-09 11:19 -8.74742 115.15659 22 ft 22 kts 267°
2026-05-09 11:20 -8.74749 115.15510 22 ft 17 kts 268°
2026-05-09 11:20 -8.74779 115.15408 22 ft 12 kts 212°
2026-05-09 11:20 -8.74850 115.15400 22 ft 10 kts 175°
2026-05-09 11:20 -8.74913 115.15421 22 ft 9 kts 118°
2026-05-09 11:21 -8.74916 115.15472 22 ft 6 kts 86°
2026-05-09 11:21 -8.74907 115.15686 22 ft 63 kts 87°
2026-05-09 11:21 -8.74876 115.16321 22 ft 125 kts 88°
2026-05-09 11:21 -8.74825 115.17378 94 ft 173 kts 90°
2026-05-09 11:22 -8.74746 115.18589 687 ft 178 kts 89°
2026-05-09 11:22 -8.74686 115.19833 1360 ft 185 kts 91°
2026-05-09 11:22 -8.74653 115.21119 2032 ft 190 kts 91°
2026-05-09 11:22 -8.74623 115.22423 2459 ft 195 kts 90°
2026-05-09 11:23 -8.74578 115.23811 2718 ft 209 kts 89°
2026-05-09 11:23 -8.74522 115.25322 2956 ft 226 kts 89°
2026-05-09 11:23 -8.74415 115.26917 3409 ft 233 kts 79°
2026-05-09 11:23 -8.73676 115.28333 3886 ft 244 kts 44°
2026-05-09 11:24 -8.72145 115.29091 4165 ft 264 kts
2026-05-09 11:24 -8.70321 115.28919 4562 ft 279 kts 340°
2026-05-09 11:24 -8.68767 115.27844 5186 ft 282 kts 311°
2026-05-09 11:24 -8.67573 115.26308 5908 ft 283 kts 307°
2026-05-09 11:25 -8.66430 115.24750 6601 ft 285 kts 307°
2026-05-09 11:25 -8.65246 115.23138 7022 ft 298 kts 307°
2026-05-09 11:25 -8.64018 115.21483 7747 ft 299 kts 307°
2026-05-09 11:25 -8.62818 115.19876 8653 ft 293 kts 307°
2026-05-09 11:26 -8.61611 115.18268 9368 ft 294 kts 307°
2026-05-09 11:26 -8.60399 115.16660 10038 ft 297 kts 307°
2026-05-09 11:26 -8.59169 115.15029 10652 ft 301 kts 308°
2026-05-09 11:26 -8.57880 115.13322 10961 ft 317 kts 308°
2026-05-09 11:27 -8.56535 115.11540 11240 ft 333 kts 307°
2026-05-09 11:27 -8.55131 115.09682 11505 ft 348 kts 307°
2026-05-09 11:27 -8.53672 115.07746 11757 ft 362 kts 307°
2026-05-09 11:27 -8.52143 115.05715 12029 ft 375 kts 307°
2026-05-09 11:28 -8.50572 115.03632 12519 ft 380 kts 307°
2026-05-09 11:28 -8.49001 115.01548 13074 ft 383 kts 307°
2026-05-09 11:28 -8.47289 114.99554 13612 ft 386 kts 314°
2026-05-09 11:28 -8.45293 114.97787 14154 ft 390 kts 322°
2026-05-09 11:29 -8.43096 114.96294 14677 ft 393 kts 327°
2026-05-09 11:29 -8.40803 114.94888 15192 ft 396 kts 328°
2026-05-09 11:29 -8.38473 114.93481 15694 ft 400 kts 328°
2026-05-09 11:29 -8.36116 114.92049 16190 ft 403 kts 328°
2026-05-09 11:30 -8.33743 114.90616 16672 ft 406 kts 328°
2026-05-09 11:30 -8.31352 114.89198 17142 ft 409 kts 328°
2026-05-09 11:30 -8.28945 114.87775 17596 ft 412 kts 328°
2026-05-09 11:30 -8.26493 114.86325 18045 ft 415 kts 328°
2026-05-09 11:31 -8.24192 114.84690 18361 ft 419 kts 315°
2026-05-09 11:31 -8.22383 114.82446 18532 ft 425 kts 302°
2026-05-09 11:31 -8.20794 114.79984 18761 ft 428 kts 301°
2026-05-09 11:31 -8.19227 114.77494 19212 ft 423 kts 301°
2026-05-09 11:32 -8.17688 114.75043 19711 ft 423 kts 301°
2026-05-09 11:32 -8.16123 114.72561 20156 ft 425 kts 301°
2026-05-09 11:32 -8.14566 114.70101 20530 ft 428 kts 301°
2026-05-09 11:32 -8.12997 114.67631 20900 ft 431 kts 301°
2026-05-09 11:33 -8.11404 114.65128 21273 ft 434 kts 301°
2026-05-09 11:33 -8.09796 114.62601 21642 ft 436 kts 301°
2026-05-09 11:33 -8.06556 114.57512 21886 ft 439 kts 301°
2026-05-09 11:34 -8.04951 114.54991 21888 ft 438 kts 301°
2026-05-09 11:34 -8.03313 114.52418 21889 ft 438 kts 301°
2026-05-09 11:34 -8.01716 114.49911 21890 ft 438 kts 301°
2026-05-09 11:34 -8.00082 114.47344 21890 ft 438 kts 301°
2026-05-09 11:35 -7.98471 114.44815 21890 ft 439 kts 301°
2026-05-09 11:35 -7.96856 114.42280 21890 ft 439 kts 302°
2026-05-09 11:35 -7.95231 114.39733 21890 ft 439 kts 302°
2026-05-09 11:35 -7.93606 114.37184 21890 ft 439 kts 301°
2026-05-09 11:36 -7.91989 114.34648 21890 ft 439 kts 302°
2026-05-09 11:36 -7.90374 114.32117 21890 ft 439 kts 302°
2026-05-09 11:36 -7.88740 114.29553 21890 ft 439 kts 302°
2026-05-09 11:36 -7.87129 114.27028 21890 ft 439 kts 302°
2026-05-09 11:37 -7.85498 114.24469 21890 ft 439 kts 302°
2026-05-09 11:37 -7.83897 114.21959 21890 ft 439 kts 302°
2026-05-09 11:37 -7.82275 114.19417 21890 ft 439 kts 302°
2026-05-09 11:37 -7.80641 114.16855 21890 ft 439 kts 302°
2026-05-09 11:38 -7.79027 114.14327 21890 ft 439 kts 302°
2026-05-09 11:38 -7.77438 114.11764 21886 ft 439 kts 298°
2026-05-09 11:38 -7.76182 114.09023 21888 ft 437 kts 289°
2026-05-09 11:38 -7.75371 114.06145 21889 ft 436 kts 280°
2026-05-09 11:39 -7.75002 114.03181 21891 ft 435 kts 273°
2026-05-09 11:39 -7.74849 114.00172 21891 ft 435 kts 271°
2026-05-09 11:39 -7.74726 113.96883 21890 ft 435 kts 271°
2026-05-09 11:40 -7.74498 113.90921 21888 ft 434 kts 271°
2026-05-09 11:40 -7.74385 113.88199 21878 ft 434 kts 271°
2026-05-09 11:40 -7.74257 113.85214 21880 ft 434 kts 271°
2026-05-09 11:40 -7.74127 113.82256 21756 ft 429 kts 271°
2026-05-09 11:41 -7.73997 113.79313 21267 ft 424 kts 271°
2026-05-09 11:41 -7.73868 113.76414 21109 ft 426 kts 271°
2026-05-09 11:41 -7.73737 113.73475 20945 ft 426 kts 271°
2026-05-09 11:41 -7.73606 113.70546 20773 ft 426 kts 271°
2026-05-09 11:42 -7.73475 113.67624 20601 ft 424 kts 271°
2026-05-09 11:42 -7.73344 113.64705 20429 ft 423 kts 271°
2026-05-09 11:42 -7.73214 113.61805 20257 ft 422 kts 271°
2026-05-09 11:42 -7.73084 113.58924 20086 ft 421 kts 271°
2026-05-09 11:43 -7.72868 113.56022 19913 ft 421 kts 275°
2026-05-09 11:43 -7.72469 113.53164 19741 ft 420 kts 279°
2026-05-09 11:43 -7.71877 113.50320 19557 ft 420 kts 282°
2026-05-09 11:43 -7.71178 113.47530 19313 ft 418 kts 283°
2026-05-09 11:44 -7.70463 113.44748 19066 ft 416 kts 283°
2026-05-09 11:44 -7.69747 113.41974 18820 ft 415 kts 283°
2026-05-09 11:44 -7.69038 113.39215 18574 ft 413 kts 283°
2026-05-09 11:44 -7.68342 113.36500 18331 ft 412 kts 283°
2026-05-09 11:45 -7.67641 113.33762 18086 ft 410 kts 283°
2026-05-09 11:45 -7.66941 113.31027 17839 ft 409 kts 283°
2026-05-09 11:45 -7.66243 113.28299 17593 ft 407 kts 283°
2026-05-09 11:45 -7.65561 113.25592 17347 ft 406 kts 282°
2026-05-09 11:46 -7.64981 113.22855 17100 ft 404 kts 280°
2026-05-09 11:46 -7.64444 113.20128 16854 ft 403 kts 280°
2026-05-09 11:46 -7.63915 113.17409 16604 ft 402 kts 280°
2026-05-09 11:46 -7.63390 113.14713 16315 ft 400 kts 280°
2026-05-09 11:47 -7.62861 113.11993 15974 ft 398 kts 280°
2026-05-09 11:47 -7.62341 113.09329 15546 ft 396 kts 280°
2026-05-09 11:47 -7.61825 113.06683 15061 ft 393 kts 281°
2026-05-09 11:47 -7.61306 113.04028 14563 ft 389 kts 281°
2026-05-09 11:48 -7.60800 113.01441 14341 ft 381 kts 281°
2026-05-09 11:48 -7.60295 112.98862 14127 ft 375 kts 281°
2026-05-09 11:48 -7.59802 112.96341 13917 ft 371 kts 281°
2026-05-09 11:48 -7.59314 112.93849 13713 ft 368 kts 281°
2026-05-09 11:49 -7.58835 112.91402 13556 ft 366 kts 281°
2026-05-09 11:49 -7.58350 112.88922 13436 ft 365 kts 281°
2026-05-09 11:49 -7.57869 112.86472 13291 ft 363 kts 281°
2026-05-09 11:49 -7.57394 112.84046 13072 ft 354 kts 281°
2026-05-09 11:50 -7.56936 112.81710 12951 ft 340 kts 281°
2026-05-09 11:50 -7.56495 112.79449 12937 ft 324 kts 281°
2026-05-09 11:50 -7.56079 112.77310 12933 ft 308 kts 281°
2026-05-09 11:50 -7.55678 112.75244 12934 ft 307 kts 281°
2026-05-09 11:51 -7.55274 112.73168 12922 ft 307 kts 281°
2026-05-09 11:51 -7.54871 112.71101 12806 ft 306 kts 281°
2026-05-09 11:51 -7.54471 112.69044 12684 ft 306 kts 281°
2026-05-09 11:51 -7.54066 112.66969 12561 ft 305 kts 281°
2026-05-09 11:52 -7.53661 112.64909 12441 ft 304 kts 281°
2026-05-09 11:52 -7.53261 112.62871 12207 ft 299 kts 281°
2026-05-09 11:52 -7.52870 112.60883 12015 ft 290 kts 281°
2026-05-09 11:52 -7.52496 112.58978 11840 ft 281 kts 281°
2026-05-09 11:53 -7.52127 112.57101 11578 ft 276 kts 281°
2026-05-09 11:53 -7.51759 112.55230 11153 ft 278 kts 281°
2026-05-09 11:53 -7.51391 112.53358 10702 ft 280 kts 281°
2026-05-09 11:53 -7.51013 112.51437 10156 ft 286 kts 281°
2026-05-09 11:54 -7.50630 112.49490 9615 ft 291 kts 281°
2026-05-09 11:54 -7.50244 112.47529 9078 ft 295 kts 281°
2026-05-09 11:54 -7.49848 112.45515 8494 ft 300 kts 281°
2026-05-09 11:54 -7.49448 112.43480 7881 ft 306 kts 281°
2026-05-09 11:55 -7.49036 112.41388 7270 ft 311 kts 281°
2026-05-09 11:56 -7.41642 112.37601 6199 ft 265 kts 30°
2026-05-09 11:56 -7.40263 112.38688 5959 ft 258 kts 50°
2026-05-09 11:56 -7.39320 112.40184 5725 ft 254 kts 67°
2026-05-09 11:57 -7.38668 112.41808 5531 ft 254 kts 70°
2026-05-09 11:57 -7.38068 112.43412 5316 ft 250 kts 70°
2026-05-09 11:57 -7.37462 112.45013 5066 ft 249 kts 70°
2026-05-09 11:57 -7.36845 112.46610 4717 ft 249 kts 70°
2026-05-09 11:58 -7.36224 112.48191 4386 ft 248 kts 70°
2026-05-09 11:58 -7.35598 112.49774 4060 ft 246 kts 70°
2026-05-09 11:58 -7.34974 112.51347 3740 ft 245 kts 70°
2026-05-09 11:58 -7.34365 112.52898 3507 ft 239 kts 75°
2026-05-09 11:59 -7.34126 112.54474 3479 ft 230 kts 92°
2026-05-09 11:59 -7.34261 112.56043 3272 ft 226 kts 101°
2026-05-09 11:59 -7.34522 112.57557 3095 ft 224 kts 103°
2026-05-09 11:59 -7.34799 112.59070 2992 ft 223 kts 102°
2026-05-09 12:00 -7.35062 112.60588 2957 ft 223 kts 101°
2026-05-09 12:00 -7.35313 112.62118 2911 ft 224 kts 101°
2026-05-09 12:00 -7.35554 112.63622 2675 ft 222 kts 101°
2026-05-09 12:00 -7.35795 112.65134 2384 ft 218 kts 101°
2026-05-09 12:01 -7.36027 112.66592 2105 ft 216 kts 101°
2026-05-09 12:01 -7.36262 112.68051 1866 ft 208 kts 101°
2026-05-09 12:01 -7.36478 112.69398 1634 ft 193 kts 101°
2026-05-09 12:01 -7.36678 112.70637 1386 ft 173 kts 100°
2026-05-09 12:02 -7.36861 112.71764 1120 ft 157 kts 99°
2026-05-09 12:02 -7.37030 112.72804 901 ft 149 kts 99°
2026-05-09 12:02 -7.37191 112.73800 705 ft 147 kts 99°
2026-05-09 12:02 -7.37346 112.74800 525 ft 147 kts 99°
2026-05-09 12:03 -7.37508 112.75798 361 ft 146 kts 99°
2026-05-09 12:03 -7.37670 112.76778 158 ft 144 kts 99°
2026-05-09 12:03 -7.37827 112.77747 9 ft 135 kts 99°
2026-05-09 12:03 -7.37959 112.78527 9 ft 90 kts 100°
2026-05-09 12:04 -7.38028 112.78958 9 ft 49 kts 99°
2026-05-09 12:04 -7.38041 112.79226 9 ft 28 kts 78°
2026-05-09 12:04 -7.38014 112.79318 9 ft 4 kts 71°
2026-05-09 12:04 -7.38002 112.79352 9 ft 5 kts 68°
2026-05-09 12:05 -7.37983 112.79387 9 ft 6 kts 49°
2026-05-09 12:05 -7.37932 112.79411 9 ft 11 kts 10°
2026-05-09 12:05 -7.37842 112.79427 9 ft 10 kts
2026-05-09 12:05 -7.37769 112.79438 9 ft 9 kts
2026-05-09 12:06 -7.37746 112.79442 9 ft 0 kts
2026-05-09 12:06 -7.37736 112.79443 9 ft 2 kts
2026-05-09 12:06 -7.37712 112.79447 9 ft 4 kts 12°
2026-05-09 12:06 -7.37688 112.79462 9 ft 3 kts 61°
2026-05-09 12:07 -7.37687 112.79494 9 ft 4 kts 92°
2026-05-09 12:07 -7.37684 112.79517 9 ft 2 kts 37°
2026-05-09 12:07 -7.37663 112.79523 9 ft 3 kts 10°
2026-05-09 12:07 -7.37637 112.79527 9 ft 4 kts
2026-05-09 12:08 -7.37610 112.79532 9 ft 3 kts
2026-05-09 12:08 -7.37603 112.79533 9 ft 0 kts
2026-05-09 12:08 -7.37599 112.79533 9 ft 0 kts